DW9403 Weather Reports


time (UTC)temp
C
wind
direction
speed
KPH
gust
KPH
rain 1hr
cm
rain 24hr
cm
rain mn
cm
humidity
%
barometer
mb
20260503194552 27 5 0.0 0.0 0.00 0.00 0.00 35 1008.9
20260503193052 26 19 0.0 0.0 0.00 0.00 0.00 36 1009.0
20260503191548 26 347 1.6 0.0 0.00 0.00 0.00 37 1009.2
20260503190047 26 297 0.0 0.0 0.00 0.00 0.00 38 1009.3
20260503184539 25 284 0.0 0.0 0.00 0.00 0.00 39 1009.5
20260503183047 24 53 1.6 0.0 0.00 0.00 0.00 40 1009.7
20260503181535 23 5 0.0 0.0 0.00 0.00 0.00 41 1009.8
20260503180031 23 46 0.0 0.0 0.00 0.00 0.00 43 1010.0
20260503174531 23 73 0.0 0.0 0.00 0.00 0.00 44 1010.1
20260503173025 22 121 0.0 0.0 0.00 0.00 0.00 46 1010.2
20260503171523 22 56 0.0 0.0 0.00 0.00 0.00 48 1010.2
20260503150104 13 114 0.0 0.0 0.00 0.00 0.00 83 1010.7
20260503081523 15 119 0.0 0.0 0.00 0.00 0.00 83 1011.2
20260503071521 15 120 0.0 0.0 0.00 0.00 0.00 82 1011.4
20260503054515 16 193 0.0 0.0 0.00 0.00 0.00 79 1011.6
20260503053015 16 15 0.0 0.0 0.00 0.00 0.00 77 1011.0
20260503051518 16 360 0.0 0.0 0.00 0.00 0.00 78 1010.9
20260503050017 16 11 0.0 0.0 0.00 0.00 0.00 78 1011.2
20260503044517 16 11 0.0 0.0 0.00 0.00 0.00 77 1011.4
20260503043012 16 106 0.0 0.0 0.00 0.00 0.00 77 1011.6
20260503041512 17 106 0.0 0.0 0.00 0.00 0.00 77 1011.7
20260503040017 17 106 0.0 0.0 0.00 0.00 0.00 76 1011.6
20260503034514 17 140 0.0 0.0 0.00 0.00 0.00 76 1011.3
20260503033014 17 114 0.0 0.0 0.00 0.00 0.00 75 1011.4
20260503031510 17 108 0.0 0.0 0.00 0.00 0.00 75 1011.4
20260503030010 18 108 0.0 0.0 0.00 0.00 0.00 73 1011.3
20260503024509 18 134 1.6 0.0 0.00 0.00 0.00 71 1011.3
20260503023009 18 130 0.0 0.0 0.00 0.00 0.00 71 1011.2
20260503021508 18 149 0.0 0.0 0.00 0.00 0.00 70 1011.0
20260503020008 18 150 0.0 0.0 0.00 0.00 0.00 72 1010.6
20260503014510 18 150 0.0 0.0 0.00 0.00 0.00 71 1010.3
20260503013007 18 150 0.0 0.0 0.00 0.00 0.00 71 1010.3
20260503011506 18 151 0.0 0.0 0.00 0.00 0.00 71 1010.3
20260503010010 19 244 0.0 0.0 0.00 0.00 0.00 70 1010.3
20260503004505 19 246 0.0 0.0 0.00 0.00 0.00 69 1010.5
20260503003005 19 246 0.0 0.0 0.00 0.00 0.00 69 1010.4
20260503001503 19 254 0.0 0.0 0.00 0.00 0.00 71 1010.3
20260503000002 19 270 0.0 0.0 0.00 0.00 0.00 69 1010.3
20260502234501 20 283 0.0 0.0 0.00 0.00 0.00 67 1010.4
20260502233102 20 258 0.0 0.0 0.00 0.00 0.00 67 1010.5
20260502231558 19 304 0.0 0.0 0.00 0.00 0.00 67 1010.7
20260502230057 20 285 1.6 0.0 0.00 0.00 0.00 65 1010.6
20260502224601 19 317 0.0 0.0 0.00 0.00 0.00 66 1010.9
20260502223054 19 263 0.0 0.0 0.00 0.00 0.00 66 1011.1
20260502221551 18 15 0.0 0.0 0.00 0.00 0.00 69 1011.6
20260502220047 18 294 0.0 0.0 0.00 0.00 0.00 69 1011.8
20260502214554 18 355 0.0 0.0 0.00 0.00 0.00 71 1012.0
20260502213042 17 5 0.0 0.0 0.00 0.00 0.00 71 1012.2
20260502211539 17 221 0.0 0.0 0.00 0.00 0.00 73 1012.4
20260502210047 17 296 0.0 0.0 0.00 0.00 0.00 73 1012.7
20260502204534 16 306 0.0 0.0 0.00 0.00 0.00 75 1012.9
20260502203033 15 239 0.0 0.0 0.00 0.00 0.00 79 1013.0
20260502201528 15 165 0.0 0.0 0.00 0.00 0.00 78 1013.1
20260502200024 14 296 0.0 0.0 0.00 0.00 0.00 81 1013.3